#timestamp,LO_Frequency,Hit,StdDev 
1553220015.0,286046995.0,N
1553220015.9,286046995.0,N
1553220035.8,286046995.1,N
1553220055.6,286046997.7,N
1553220075.4,286046999.5,N
1553220095.3,286046997.4,N
1553220115.1,286046997.0,N
1553220135.9,286046996.8,N
1553220155.7,286046997.9,N
1553220175.5,286046995.6,N
1553220195.4,286046995.3,N
1553220215.2,286046995.6,N
1553220235.0,286046998.0,N
1553220235.9,286046998.0,N
1553220255.8,286046995.0,N
1553220275.6,286046998.0,N
1553220295.5,286046995.7,N
1553220315.3,286046996.0,N
1553220335.1,286046994.0,Y
1553220355.9,286046996.9,P
1553220375.7,286046997.6,P
1553220395.5,286046995.1,P
1553220415.4,286046995.8,Y
1553220435.2,286046999.6,P
1553220455.1,286046997.9,N
1553220456.0,286046997.9,N
1553220475.8,286046995.3,Y
1553220495.6,286046997.8,P
1553220515.5,286046999.6,P
1553220535.3,286046998.9,N
1553220555.2,286047000.8,N
1553220575.0,286047001.1,N
1553220575.9,286047001.1,N
1553220595.7,286046998.3,N
1553220615.6,286046998.3,N
1553220635.4,286046996.6,N
1553220655.3,286046999.5,N
1553220675.1,286046999.5,N
1553220676.0,286046999.5,N
1553220695.8,286046997.8,N
1553220715.7,286046998.3,N
1553220735.5,286046996.9,N
1553220755.3,286046996.8,N
1553220775.2,286046997.1,N
1553220795.0,286046999.6,N
1553220795.9,286046999.6,N
1553220815.8,286046999.4,N
1553220835.6,286046998.1,N
1553220855.4,286046998.3,N
1553220875.3,286046996.5,N
1553220895.1,286046995.0,Y
1553220915.8,286046996.9,P
1553220935.7,286046999.6,N
1553220955.5,286046999.0,N
1553220975.4,286046999.5,N
1553220995.2,286047001.2,N
1553221015.0,286047000.7,N
1553221015.9,286047000.7,N
1553221035.8,286047000.7,N
1553221055.6,286046998.6,N
1553221075.4,286046996.5,N
1553221095.3,286046997.1,N
1553221115.1,286046996.8,N
1553221135.9,286046995.2,Y
1553221155.7,286046997.3,P
1553221175.5,286046997.0,P
1553221195.4,286046997.9,N
1553221215.2,286046997.7,Y
1553221235.0,286046999.0,P
1553221235.9,286046999.0,N
1553221255.8,286046998.5,N
1553221275.6,286047000.5,N
1553221295.5,286047000.3,N
1553221315.3,286047002.6,N
1553221335.1,286047000.5,N
1553221355.9,286047002.8,N
1553221375.7,286047002.1,N
1553221395.5,286047002.3,N
1553221415.4,286047002.0,N
1553221435.2,286047002.4,N
1553221455.1,286047002.3,N
1553221456.0,286047002.3,N
1553221475.8,286046999.9,N
1553221495.6,286046998.1,N
1553221515.5,286046998.7,N
1553221535.3,286046999.2,N
1553221555.1,286046996.5,N
1553221575.9,286046997.7,N
1553221595.7,286046996.7,N
1553221615.6,286046999.2,N
1553221635.4,286046996.6,N
1553221655.2,286046998.1,N
1553221675.1,286047000.7,N
1553221676.0,286047000.7,N
1553221695.8,286047002.7,N
1553221715.6,286047002.5,N
1553221735.5,286047000.1,N
1553221755.3,286047001.0,N
1553221775.1,286047000.6,N
1553221795.2,286046998.7,N
1553221815.0,286046999.3,N
1553221815.9,286046999.3,N
1553221835.8,286046998.8,N
1553221855.6,286046999.5,N
1553221875.4,286046996.8,N
1553221895.3,286046995.0,N
1553221915.1,286046997.3,N
1553221935.8,286046996.9,N
1553221955.7,286046997.6,N
1553221975.5,286046995.8,N
1553221995.4,286046997.5,N
1553222015.2,286046995.0,N
1553222035.0,286046997.5,N
1553222035.9,286046997.5,N
1553222055.8,286046996.6,N
1553222075.6,286046999.1,N
1553222095.4,286046996.7,N
1553222115.3,286046996.7,N
1553222135.1,286046997.5,N
1553222155.9,286046998.4,N
1553222175.7,286046998.9,N
1553222195.5,286046999.6,N
1553222215.4,286046996.9,N
1553222235.2,286046999.1,N
1553222255.0,286046998.4,N
1553222255.9,286046998.4,N
1553222275.8,286046998.3,N
1553222295.6,286047000.5,N
1553222315.5,286046999.4,N
1553222335.3,286046998.7,N
1553222355.1,286046996.5,N
1553222375.9,286046999.0,N
1553222395.7,286046999.3,N
1553222415.5,286046997.4,N
1553222435.4,286046997.7,N
1553222455.2,286046997.3,N
1553222475.1,286046997.4,N
1553222476.0,286046997.4,N
1553222495.8,286046998.3,N
1553222515.6,286046998.4,N
1553222535.5,286046998.2,N
1553222555.3,286047011.9,Y
1553222575.2,286047000.0,P
1553222595.9,286047002.4,N
1553222615.7,286047002.5,N
1553222635.6,286046999.7,N
1553222655.4,286047000.1,N
1553222675.2,286047002.7,N
1553222695.1,286047000.9,N
1553222696.0,286047000.9,N
1553222715.8,286047000.6,N
1553222735.7,286046998.1,N
1553222755.5,286047000.3,N
1553222775.3,286047000.4,N
1553222795.2,286047000.9,N
1553222815.9,286046999.9,N
1553222835.7,286046999.8,N
1553222855.6,286047000.4,N
1553222875.4,286047002.2,N
1553222895.3,286047001.7,N
1553222915.1,286047004.1,Y
1553222935.8,286047000.4,P
1553222955.7,286047001.2,P
1553222975.5,286047002.4,P
1553222995.4,286047000.4,N
1553223015.2,286046999.4,N
1553223035.0,286046998.5,N
1553223035.9,286046998.5,N
1553223055.8,286047002.1,N
1553223075.6,286047002.5,N
1553223095.4,286047001.3,N
1553223115.3,286047001.6,N
1553223135.1,286047002.4,N
1553223155.9,286047002.2,N
1553223175.7,286047001.5,N
1553223195.5,286047004.2,Y
1553223215.4,286047002.1,P
1553223235.2,286047002.2,P
1553223255.0,286047004.2,P
1553223255.9,286047004.2,Y
1553223275.8,286046998.4,P
1553223295.6,286046997.7,N
1553223315.5,286046997.1,N
1553223335.3,286046997.0,N
1553223355.1,286046998.3,N
1553223375.9,286046996.7,N
1553223395.7,286046995.6,N
1553223415.5,286046995.7,N
1553223435.4,286046995.9,N
1553223455.2,286046995.1,N
1553223475.1,286046999.2,N
1553223476.0,286046999.2,N
1553223495.8,286046998.2,N
1553223515.6,286047000.3,N
1553223535.5,286046999.9,N
1553223555.3,286047000.6,N
1553223575.1,286047001.1,N
1553223595.9,286046998.1,N
